www.pogodaiklimat.ru

Погода и климат >> Архив погоды >> Финляндия >> Пюхя


ПОГОДА в Пюхе

  • Прогноз погоды в Пюхе
  • Монитор погоды в Пюхе

АРХИВ ПОГОДЫ в Пюхе

Время (UTC), дата Ветер
(напр.,м/с)
 
Видим.   Явления Облачность Т
(С)
Тd
(С)
f
(%)
Тe
(С)
Тes
(С)
Комфортность P
(гПа)
Po
(гПа)
Тmin
(С)
Tmax
(С)
R
(мм)
R24
(мм)
S
(см)
10 11.06 СЗ 10-9
{15}
н/о н/о +2.8 -0.6 78 -4 -4 1025.7 965.7
11 11.06 СЗ 10 н/о н/о +3.4 -0.7 74 -3 -3 1026.1 966.2
12 11.06 С 11-13
{15}
н/о н/о +4.2 -1.2 68 -3 -3 1026.2 966.4
13 11.06 СЗ 9 н/о н/о +4.2 -0.4 72 -2 -2 1026.7 966.8
14 11.06 СЗ 6-15
{15}
н/о н/о +4.8 -1.2 65 0 0 1026.9 967.2
15 11.06 СЗ 8-10
{13}
н/о н/о +4.0 -1.6 67 -2 -2 1027.6 967.7
16 11.06 С 8 н/о н/о +4.7 -1.5 64 -1 -1 1027.9 968.1
17 11.06 СЗ 7 н/о н/о +5.4 -1.9 59 +1 +1 1027.9 968.3
18 11.06 СЗ 6-7
{9}
н/о н/о +3.8 -1.0 71 -1 -1 1028.6 968.6 +0.9 +6.2
19 11.06 СЗ 6-9
{9}
н/о н/о +3.8 +0.6 80 -2 -2 1028.7 968.7
20 11.06 С 7 н/о н/о +2.6 +0.7 87 -4 -4 1029.3 969.0
21 11.06 СЗ 8-9
{9}
н/о н/о +2.5 +0.8 89 -4 -4 1029.4 969.1
22 11.06 СЗ 9-9
{10}
н/о н/о +2.3 +0.6 89 -5 -5 1029.8 969.4
23 11.06 СЗ 7-8
{9}
н/о н/о +2.1 +0.8 91 -4 -4 1030.1 969.7
00 12.06 СЗ 6-7
{8}
н/о н/о +2.0 +0.3 88 -4 -4 1030.4 969.9
01 12.06 СЗ 5 н/о н/о +2.1 +0.7 90 -4 -4 1030.6 970.1
02 12.06 СЗ 6 н/о н/о +2.4 +0.5 87 -4 -4 1030.5 970.1
03 12.06 СЗ 6-7
{7}
н/о н/о +2.5 +0.8 89 -4 -4 1030.5 970.1
04 12.06 СЗ 5 н/о н/о +3.2 +0.6 83 -2 -2 1030.5 970.3
05 12.06 СЗ 6 н/о н/о +4.1 -0.8 70 -1 -1 1030.5 970.4
06 12.06 СЗ 7-10
{10}
н/о н/о +4.5 -1.4 65 -1 -1 1030.4 970.5 +1.9 +4.7
07 12.06 СЗ 7 н/о н/о +5.1 -2.0 60 0 0 1030.4 970.6
08 12.06 СЗ 5-8
{10}
н/о н/о +5.7 -0.9 62 +2 +2 1030.7 971.0
09 12.06 С 4-5
{8}
н/о н/о +6.5 -0.1 63 +3 +3 1030.8 971.2
10 12.06 СЗ 5 н/о н/о +6.4 -0.5 61 +3 +3 1030.8 971.2
11 12.06 СЗ 4 н/о н/о +7.7 -1.2 53 +5 +5 1030.4 971.1
12 12.06 З 4-6
{7}
н/о н/о +9.1 +0.2 54 +7 +7 1029.8 970.9
13 12.06 З 3-6
{7}
н/о н/о +9.8 -0.4 49 +8 +8 1029.3 970.5
14 12.06 З 3 н/о н/о +9.9 +0.2 51 +8 +8 1029.0 970.2
15 12.06 СЗ 2-3
{4}
н/о н/о +9.2 -0.5 51 +8 +8 1028.8 969.9
16 12.06 С 3-3
{5}
н/о н/о +9.5 0.0 51 +8 +8 1028.6 969.8
17 12.06 С 2-3
{3}
н/о н/о +9.8 -1.0 47 +9 +9 1028.1 969.3
18 12.06 В 1-2
{4}
н/о н/о +9.4 -0.2 51 +9 +9 1028.0 969.2 +4.5 +11.6
19 12.06 В 5 н/о н/о +8.9 +0.6 56 +6 +6 1028.1 969.2
20 12.06 ЮВ 6-6
{6}
н/о н/о +8.4 +1.1 60 +5 +5 1028.4 969.4
21 12.06 Ю 7-7
{7}
н/о н/о +7.9 +0.3 59 +4 +4 1028.6 969.5
22 12.06 Ю 7 н/о н/о +7.7 0.0 58 +4 +4 1028.8 969.6
23 12.06 Ю 8 н/о н/о +7.3 -0.3 58 +3 +3 1028.6 969.3
00 13.06 ЮЗ 6-6
{9}
н/о н/о +7.1 +1.3 67 +3 +3 1028.5 969.1
01 13.06 З 5-6
{7}
н/о н/о +6.8 +1.3 68 +3 +3 1028.7 969.3
02 13.06 З 5-6
{6}
н/о н/о +7.3 +0.8 63 +4 +4 1028.8 969.5
03 13.06 ЮЗ 5-6
{6}
н/о н/о +7.9 +1.2 63 +4 +4 1028.3 969.1
04 13.06 З 3 н/о н/о +8.4 +1.3 61 +6 +6 1028.2 969.2
05 13.06 ЮЗ 2-3
{4}
н/о н/о +8.8 +2.6 65 +7 +7 1028.1 969.1
06 13.06 ЮЗ 2-3
{5}
н/о н/о +9.8 +0.8 53 +9 +9 1027.6 968.9 +6.5 +10.4
07 13.06 Ю 3-5
{5}
н/о н/о +10.3 +1.0 52 +9 +9 1027.2 968.6
08 13.06 Ю 3 н/о н/о +10.4 +0.8 51 +9 +9 1027.1 968.5
09 13.06 Ю 4-6
{7}
н/о н/о +10.8 +1.3 52 +9 +9 1026.9 968.4
10 13.06 Ю 3-5
{6}
н/о н/о +11.1 +1.6 52 +10 +10 1026.4 968.0
11 13.06 Ю 4 н/о н/о +11.5 +1.2 49 +10 +10 1025.9 967.6
12 13.06 ЮЗ 2-3
{7}
н/о н/о +12.0 +1.6 49 +11 +11 1025.5 967.4
13 13.06 ЮВ 3 н/о н/о +12.2 +0.7 45 +11 +11 1025.1 967.0
14 13.06 ЮВ 3-4
{6}
н/о н/о +12.6 0.0 42 +12 +12 1024.6 966.6
15 13.06 Ю 2-3
{5}
н/о н/о +12.1 +0.3 44 +12 +12 1024.1 966.0
16 13.06 ЮВ 2 н/о н/о +12.2 +1.1 47 +12 +12 1023.7 965.7
17 13.06 ЮВ 1-2
{3}
н/о н/о +11.6 +0.9 48 +12 +12 1023.5 965.3
18 13.06 З 1-2
{2}
н/о н/о +12.9 +1.8 47 +13 +13 1022.9 965.0 +9.8 +13.3
19 13.06 З 2 н/о н/о +12.7 +1.5 46 +12 +12 1022.7 964.9
20 13.06 штиль 0 н/о н/о +11.3 +1.5 51 +11 +11 1022.8 964.6
21 13.06 З 2-2
{2}
н/о н/о +10.8 +1.7 53 +10 +10 1022.6 964.4
22 13.06 З 2 н/о н/о +10.3 +2.0 56 +9 +9 1022.7 964.4
23 13.06 З 3-3
{3}
н/о н/о +10.0 +1.8 57 +8 +8 1022.6 964.3
00 14.06 СЗ 4-4
{4}
н/о н/о +9.7 +1.7 57 +7 +7 1022.5 964.0
01 14.06 СЗ 4-4
{4}
н/о н/о +9.7 +1.8 58 +7 +7 1021.9 963.5
02 14.06 СЗ 4 н/о н/о +9.8 +2.1 59 +7 +7 1021.5 963.2
03 14.06 СЗ 4-4
{4}
н/о н/о +10.7 +2.5 57 +9 +9 1020.8 962.7
04 14.06 СЗ 5 н/о н/о +11.2 +2.4 55 +9 +9 1020.4 962.4
05 14.06 СЗ 4-5
{6}
н/о н/о +12.4 +3.1 53 +11 +11 1019.9 962.2
06 14.06 СЗ 3-5
{6}
н/о н/о +13.1 +1.5 45 +12 +12 1019.6 962.0 +9.7 +13.7
07 14.06 С 3-4
{5}
н/о н/о +14.6 +2.1 43 +14 +14 1018.9 961.6
08 14.06 З 2 н/о н/о +14.6 +2.1 43 +15 +15 1018.4 961.1
09 14.06 СЗ 3-5
{6}
н/о н/о +15.8 +2.7 41 +15 +15 1017.8 960.8
10 14.06 З 2 н/о н/о +16.6 +2.7 39 +17 +17 1017.4 960.6
11 14.06 З 4 н/о н/о +17.8 +2.7 36 +18 +18 1016.5 960.0
12 14.06 З 6-8
{8}
н/о н/о +18.2 +2.7 36 +18 +18 1015.8 959.4
13 14.06 З 5-8
{9}
н/о н/о +19.4 +3.1 34 +20 +20 1015.0 958.9
14 14.06 З 6 н/о н/о +19.3 +2.8 33 +19 +19 1014.4 958.3
15 14.06 З 7-10
{10}
н/о н/о +19.6 +2.4 32 +19 +19 1013.6 957.6
16 14.06 СЗ 8 н/о н/о +19.5 +2.7 33 +19 +19 1013.2 957.2
17 14.06 СЗ 6 н/о н/о +19.2 +2.2 32 +19 +19 1012.8 956.8
18 14.06 СЗ 5-7
{8}
н/о н/о +18.9 +2.0 32 +19 +19 1012.6 956.5 +13.0 +19.8
19 14.06 С 5 н/о н/о +17.8 +2.8 37 +17 +17 1012.8 956.5
20 14.06 С 9 н/о н/о +15.6 +1.9 40 +14 +14 1013.3 956.5
21 14.06 С 12-14
{14}
н/о н/о +13.2 +2.2 47 +10 +10 1013.9 956.7
22 14.06 С 11-13
{16}
н/о н/о +11.7 +1.5 50 +8 +8 1014.7 957.1
23 14.06 С 11 н/о н/о +9.5 +1.6 58 +5 +5 1015.2 957.2
00 15.06 С 9-10
{13}
н/о н/о +8.1 +2.0 65 +3 +3 1016.0 957.6
01 15.06 С 10 н/о н/о +7.4 +1.9 68 +2 +2 1016.1 957.6
02 15.06 С 8-11
{11}
н/о н/о +6.6 +1.9 72 +2 +2 1016.5 957.8
03 15.06 С 6-9
{10}
н/о н/о +7.1 +2.1 70 +3 +3 1016.5 957.9
04 15.06 СВ 4 н/о н/о +7.1 +2.0 70 +4 +4 1016.3 957.7
05 15.06 С 6 н/о н/о +7.7 +1.8 66 +4 +4 1016.5 958.0
06 15.06 С 5-7
{7}
н/о н/о +9.2 +2.4 62 +6 +6 1016.5 958.3 +6.4 +18.9
07 15.06 С 5-7
{8}
н/о н/о +9.9 +2.2 59 +7 +7 1016.3 958.3
08 15.06 С 4 н/о н/о +11.3 +2.0 53 +9 +9 1016.0 958.3
09 15.06 С 3-5
{6}
н/о н/о +12.8 +2.5 49 +12 +12 1015.8 958.3
10 15.06 С 3-4
{6}
н/о н/о +12.7 +2.0 48 +12 +12 1015.6 958.2
11 15.06 С 3 н/о н/о +15.4 +0.7 37 +15 +15 1014.8 958.0
12 15.06 С 2-5
{6}
н/о н/о +15.6 +2.6 42 +16 +16 1014.5 957.7
13 15.06 З 3 н/о н/о +17.6 +3.0 38 +18 +18 1013.6 957.3
14 15.06 СЗ 4-8
{8}
н/о н/о +18.0 +0.9 32 +18 +18 1013.2 956.9
15 15.06 СЗ 4-7
{7}
н/о н/о +18.1 +1.5 33 +18 +18 1012.8 956.6
16 15.06 З 5 н/о н/о +18.4 +1.1 31 +18 +18 1012.3 956.1
17 15.06 З 7 н/о н/о +17.9 +1.4 33 +17 +17 1012.1 955.8
18 15.06 СЗ 7-8
{10}
н/о н/о +17.4 +1.0 33 +16 +16 1011.7 955.4 +9.2 +19.1
19 15.06 З 6 н/о н/о +16.9 +1.5 35 +16 +16 1011.5 955.1
20 15.06 З 6 н/о н/о +16.1 +1.5 37 +15 +15 1011.2 954.6
21 15.06 ЮЗ 10-10
{10}
н/о н/о +16.0 +1.3 37 +14 +14 1010.6 954.0
22 15.06 З 12 н/о н/о +15.6 +1.0 37 +13 +13 1010.4 953.8
23 15.06 З 13-14
{14}
н/о н/о +15.4 +1.6 39 +13 +13 1010.3 953.7
00 16.06 З 16-17
{17}
н/о н/о +14.5 +1.9 42 +11 +11 1010.0 953.2
01 16.06 СЗ 10 н/о н/о +12.2 +2.9 53 +9 +9 1010.9 953.6
02 16.06 СЗ 9 н/о н/о +11.7 +1.3 49 +8 +8 1011.1 953.7
03 16.06 СЗ 10-11
{12}
н/о н/о +11.7 +0.9 47 +8 +8 1010.5 953.1
04 16.06 СЗ 9 н/о н/о +11.9 +0.8 46 +9 +9 1010.4 953.1
05 16.06 СЗ 9-10
{12}
н/о н/о +12.6 +0.7 44 +10 +10 1010.1 952.9
06 16.06 СЗ 8-11
{11}
н/о н/о +13.5 +0.7 42 +11 +11 1010.3 953.3 +11.5 +17.4
07 16.06 СЗ 7-9
{10}
н/о н/о +14.3 +0.8 40 +12 +12 1010.5 953.6
08 16.06 СЗ 7 н/о н/о +15.3 +1.5 39 +14 +14 1010.4 953.8
09 16.06 СЗ 8-10
{10}
н/о н/о +16.2 +1.1 36 +15 +15 1010.4 953.9
10 16.06 СЗ 6 н/о н/о +17.5 +1.1 33 +17 +17 1010.1 953.8
11 16.06 СЗ 7 н/о н/о +17.5 -0.9 29 +17 +17 1010.1 953.9
12 16.06 С 8-10
{10}
н/о н/о +18.3 -0.4 28 +17 +17 1009.6 953.6
13 16.06 СЗ 6 н/о н/о +19.0 +0.6 29 +19 +19 1009.5 953.6
14 16.06 С 6-9
{10}
н/о н/о +18.9 +0.4 29 +19 +19 1009.3 953.3
15 16.06 С 5-8
{10}
н/о н/о +19.1 +1.2 30 +19 +19 1009.1 953.3
16 16.06 СЗ 6-9
{9}
н/о н/о +19.0 +0.9 30 +19 +19 1009.0 953.2
17 16.06 СЗ 7 н/о н/о +18.4 +0.6 30 +18 +18 1009.0 953.0
18 16.06 С 6-7
{9}
н/о н/о +17.4 +1.1 33 +17 +17 1009.4 953.2 +13.4 +19.7
19 16.06 С 7 н/о н/о +16.2 +1.6 37 +15 +15 1009.7 953.3
20 16.06 С 5-8
{8}
н/о н/о +14.8 +1.9 42 +14 +14 1009.9 953.1
21 16.06 С 9-9
{9}
н/о н/о +13.4 +1.0 43 +11 +11 1009.8 952.8
22 16.06 С 6 н/о н/о +12.5 +1.3 46 +10 +10 1010.0 952.9
23 16.06 С 7 н/о н/о +12.1 +1.5 48 +9 +9 1010.1 952.9
00 17.06 Ю 1-5
{8}
н/о н/о +10.3 +1.7 55 +10 +10 1010.5 952.9
01 17.06 ЮЗ 1 н/о н/о +10.2 +0.2 50 +10 +10 1010.4 952.7
02 17.06 В 2-3
{3}
н/о н/о +10.3 +0.2 50 +9 +9 1010.0 952.4
03 17.06 СВ 2-5
{6}
н/о н/о +10.2 +1.1 53 +9 +9 1009.9 952.3
04 17.06 СВ 3 н/о н/о +10.6 +0.6 50 +9 +9 1009.6 952.1
05 17.06 В 2-6
{7}
н/о н/о +11.4 +1.5 51 +11 +11 1009.3 952.0
06 17.06 В 3-5
{6}
н/о н/о +12.6 +1.7 47 +11 +11 1008.7 951.6 +9.9 +17.4
07 17.06 В 2 н/о н/о +13.9 +2.5 46 +14 +14 1008.2 951.4
08 17.06 В 2 н/о н/о +14.9 +2.6 43 +15 +15 1007.8 951.2
09 17.06 СВ 1-3
{4}
н/о н/о +15.3 +2.2 41 +16 +16 1007.5 951.0
10 17.06 СВ 1 н/о н/о +15.3 +2.4 42 +16 +16 1007.3 950.9
11 17.06 С 5 н/о н/о +15.7 +5.2 50 +15 +15 1006.9 950.5
12 17.06 С 4-5
{5}
н/о н/о +15.3 +3.1 44 +14 +14 1006.8 950.3
13 17.06 С 4 н/о н/о +16.6 +3.7 42 +16 +16 1006.1 949.9
14 17.06 С 6-7
{7}
н/о н/о +16.4 +3.2 41 +15 +15 1005.6 949.5
15 17.06 С 4-6
{8}
н/о н/о +17.4 +6.0 47 +17 +17 1005.5 949.5
16 17.06 С 5 н/о н/о +17.0 +5.2 46 +16 +16 1005.6 949.6
17 17.06 С 5 н/о н/о +17.3 +4.4 42 +17 +17 1005.2 949.2
18 17.06 С 4-5
{6}
н/о н/о +15.8 +6.6 54 +15 +15 1005.6 949.3 +12.3 +17.8
19 17.06 С 4-4
{5}
н/о н/о +15.4 +5.1 50 +15 +15 1005.6 949.2
20 17.06 С 4-4
{5}
н/о н/о +14.6 +5.7 55 +14 +14 1005.7 949.2
21 17.06 С 4-4
{4}
н/о н/о +14.4 +5.1 54 +13 +13 1005.8 949.3
22 17.06 С 5 н/о н/о +14.1 +4.6 53 +13 +13 1005.8 949.2
23 17.06 СВ 7 н/о н/о +12.2 +5.6 64 +9 +9 1006.3 949.3
00 18.06 В 3-11
{11}
н/о н/о +11.6 +2.1 52 +10 +10 1006.4 949.2
01 18.06 ЮЗ 2-9
{9}
н/о н/о +11.7 +1.8 51 +11 +11 1006.6 949.5
02 18.06 СВ 3 н/о н/о +11.2 +2.3 54 +10 +10 1006.8 949.6
03 18.06 С 8-10
{11}
н/о н/о +10.7 +3.2 60 +7 +7 1006.9 949.6
05 18.06 С 6 н/о н/о +11.0 +3.1 58 +8 +8 1007.7 950.3
06 18.06 СВ 5-7
{7}
н/о н/о +11.7 +3.4 57 +9 +9 1007.4 950.3 +10.0 +15.8
07 18.06 С 4-7
{8}
н/о н/о +13.9 +4.1 52 +13 +13 1007.3 950.6
08 18.06 СВ 2 н/о н/о +14.5 +3.4 47 +14 +14 1007.4 950.8

 

Местоположение метеостанции Пюхя (Финляндия): широта 67.02 долгота 27.22 высота над уровнем моря 491 м.

В архиве по умолчанию представлена погода в Пюхе за последнюю неделю. Архивные данные за месяц целиком и за предыдущие месяцы, начиная с января 2011 года, Вы можете получить, выбрав интересующий диапазон дат из раскрывающегося списка и нажав кнопку "Ввод!".


*Определитесь, кто Вы:
робот инопланетянин человек

Внимание! Время в таблицах - всемирное. Для получения местного времени необходимо прибавить поправку, которая равна 1 ч.

Смотрите также архив погоды в соседних городах и на ближайших метеорологических станциях:

Погода на Аэродроме Кемиярви (Финляндия) (33 км)
Погода в Соданкюля (Финляндия) (47 км)
Погода в Савукоски (Финляндия) (51 км)
Погода в Салле (Финляндия) (67 км)
Погода в Рованиеми Апукка (Финляндия) (72 км)
Погода в Рованиеми аэропорту (Финляндия) (80 км)
Погода в Салла Наруска (Финляндия) (86 км)
Погода в Рованиеми (Финляндия) (88 км)
Погода в Соданкила Локка (Финляндия) (92 км)
Погода в Куусамо Киутаконгас (Финляндия) (117 км)

Пояснения к столбцам:

Ветер - указаны скорость ветра в м/с - средняя за 10 мин, порывы в срок и между сроками (в фигурных скобках) и направление, откуда дует ветер: С - северный, СВ - северо-восточный, В - восточный, ЮВ - юго-восточный, Ю - южный, ЮЗ - юго-западный, З - западный, СЗ - северо-западный.
Видимость - горизонтальная дальность видимости в метрах или километрах. При видимости от 1 до 10 км при отсутствии осадков обычно наблюдается дымка, при ухудшении видимости до 1 км и менее - туман. В сухую погоду видимость может ухудшаться дымом, пылью или мглою.
Явления - указаны атмосферные явления, наблюдавшиеся в срок или в последний час перед сроком; фигурными скобками обозначены явления, наблюдавшиеся между сроками (за 1-3 часа до срока); квадратными скобками обозначены град или гололедные отложения с указанием их диаметра в мм.
Облачность - указаны через наклонную черту общая и нижняя облачность в баллах и высота нижней границы облаков в метрах; квадратными скобками обозначены формы облаков: Ci - перистые, Cs - перисто-слоистые, Cc - перисто-кучевые, Ac - высококучевые, As - высокослоистые, Sc - слоисто-кучевые, Ns - слоисто-дождевые, Cu - кучевые, Cb - кучево-дождевые. Подробнее классификацию облаков см. в Атласе облаков (PDF).
T - Температура воздуха - температура, измеренная на высоте 2 м над землей.
Td - Температура точки росы - температура, при понижении до которой содержащийся в воздухе водяной пар достигнет насыщения.
f - Относительная влажность воздуха - влажноcть воздуха, измеренная на высоте 2 м над землей.
Te - Эффективная температура - температура, которую ощущает одетый по сезону человек в тени. Характеристика душности погоды. При расчете учитывается влияние влажности воздуха и скорости ветра на теплоощущения человека.
Tes - Эффективная температура на солнце - температура, которую ощущает человек, с поправкой на солнечный нагрев. Характеристика знойности погоды. Зависит от высоты солнца над горизонтом, облачности и скорости ветра. Ночью, в пасмурную погоду, а также при ветре 12 м/с и более поправка равна нулю.
P - Атмосферное давление - приведенное к уровню моря атмосферное давление.
Po - Атмосферное давление - измеренное на уровне метеостанции атмосферное давление.
Tmin - Минимальная температура - минимум температуры воздуха на высоте 2 м над землей.
Tmax - Максимальная температура - максимум температуры воздуха на высоте 2 м над землей.
R - Количество осадков - Количество выпавших осадков за период времени, мм. При наведении курсора мыши на число - период времени, за который выпало указанное количество осадков.
R24 - Количество осадков - Количество выпавших осадков за 24 часа, мм.
S - Снежный покров - Высота снежного покрова, см. При наведении курсора мыши на число - состояние снежного покрова и степень покрытия местности в баллах.